Location: Pordenone
(45.9640°N, 12.6580°E)
Time: 01:35:08
(UTC+02:00)

ISS - Pass Details

Date: 17 May 2021
Orbit: 417 x 422 km, 51.6° (Epoch: 14 June)

Event Time Altitude Azimuth Distance (km) Brightness Sun altitude
Rises 02:04:58 0° 297° (WNW) 2,372 0.2 -23.3°
Reaches altitude 10° 02:07:07 10° 303° (WNW) 1,507 -0.8 -23.2°
Maximum altitude 02:10:24 47° 19° (NNE) 571 -2.7 -23.1°
Drops below altitude 10° 02:13:41 10° 94° (E) 1,505 -0.8 -22.9°
Sets 02:15:49 0° 101° (E) 2,368 0.2 -22.8°
